Location: Knowlton
(51.2333°N, 1.2667°E)
Time: 20:29:49
(UTC+00:00)

Daily predictions for brighter satellites

Satellite Brightness Start Highest point End
(mag) Time Altitude Azimuth Time Altitude Azimuth Time Altitude Azimuth
Resurs 1-3 4.0 19:25:09 10° SE 19:29:20 45° ENE 19:33:33 10° N
Lacrosse 5 rocket 1.9 19:26:08 10° WSW 19:30:09 61° NNW 19:34:26 10° ENE
Nadezhda 4 Rocket 4.2 19:25:12 10° NNW 19:31:33 81° W 19:37:48 10° S
Cosmos 2034 Rocket 4.0 19:25:58 10° S 19:32:10 82° E 19:38:30 10° NNE
Cosmos 405 Rocket 3.9 19:29:52 10° N 19:33:24 28° ENE 19:36:52 10° SE
Cosmos 2237 Rocket 3.0 19:35:00 10° NNW 19:40:16 38° NE 19:45:29 10° ESE
Exosat Rocket 4.0 19:34:12 10° NNW 19:41:18 71° ENE 19:46:37 10° SE
BREEZE-M DEB (TANK) 4.0 19:37:53 10° WSW 19:42:43 45° S 19:47:31 10° E
SJ-6B 2.8 19:39:14 10° S 19:42:57 80° WSW 19:46:45 10° NNW
Meteor 2-10 Rocket 3.6 19:38:53 10° S 19:44:07 75° E 19:49:37 10° NNE
SL-8 R/B 4.2 19:39:43 10° W 19:44:24 50° SSW 19:48:58 11° ESE
BREEZE-M DEB (TANK) 4.1 19:41:48 10° SW 19:44:51 47° SSE 19:52:21 10° ENE
MOS 1 4.3 19:41:22 10° SSE 19:47:00 82° ENE 19:52:42 10° NNW
Cosmos 2026 Rocket 4.0 19:41:54 10° N 19:47:59 70° ENE 19:54:05 10° SSE
Cosmos 405 2.9 19:46:46 10° S 19:50:12 68° E 19:53:41 10° NNE
OBJECT-B 1.3 19:48:10 10° S 19:51:21 62° WSW 19:54:35 10° NNW
IRS-1A Rocket 4.3 19:46:18 10° SSE 19:51:53 89° ENE 19:57:38 10° NNW
Terra 3.9 19:51:10 10° E 19:53:24 13° NE 19:55:40 10° NNE
USA-17 4.4 19:50:17 10° SSW 19:53:54 56° SE 19:56:57 10° NE
BREEZE-M DEB (TANK) 3.9 19:50:07 10° SW 19:54:17 74° SSE 20:10:17 10° ENE
Cosmos 1892 3.5 19:50:58 10° NNW 19:54:39 52° W 19:58:20 10° S
NOSS 3-4 (A) 3.5 19:49:22 10° SW 19:55:17 85° NW 20:01:45 10° NE
NOSS 3-4 (C) 3.5 19:49:29 10° SW 19:55:23 86° NW 20:01:51 10° NE
Cosmos 1627 Rocket 4.5 19:51:57 10° N 19:58:07 85° E 20:04:18 10° S
Cosmos 2227 Rocket 3.8 19:57:04 12° ESE 19:59:11 14° E 20:02:06 10° ENE
Cosmos 1606 Rocket 4.4 19:55:54 10° SSW 20:00:11 55° WNW 20:04:29 10° N
SPOT 1/Viking Rocket 4.3 19:58:13 12° SE 20:02:36 38° ENE 20:07:24 10° N
Cosmos 2251 Rocket 3.8 19:57:33 10° S 20:02:40 47° ESE 20:07:46 10° NE
Cosmos 389 Rocket 3.6 20:00:15 12° SSE 20:02:52 26° E 20:05:52 10° NE
Cosmos 2333 Rocket 2.9 19:58:18 10° NW 20:03:56 56° WSW 20:09:31 10° S
Cosmos 2297 Rocket 3.4 20:02:17 10° SSE 20:06:20 21° E 20:10:25 10° NE
BREEZE-M DEB (TANK) 1.8 20:04:25 10° W 20:06:53 52° S 20:08:17 20° ESE
Cosmos 1825 2.2 20:03:39 10° NNW 20:07:27 81° W 20:11:14 10° S
Cosmos 1634 Rocket 4.0 20:01:17 10° S 20:07:31 73° E 20:13:45 10° NNE
ATLAS 2AS CENTAUR R/B 3.0 20:01:04 10° SW 20:09:00 82° SE 20:16:46 10° NE
Cosmos 2219 4.5 20:05:52 13° SE 20:09:01 20° E 20:12:56 10° NE
SPOT 3 Rocket 3.6 20:03:52 10° SSE 20:09:01 66° ENE 20:14:11 10° N
NOSS 7 (H) 4.0 20:06:34 10° SW 20:09:51 90° ENE 20:12:45 10° NE
Cosmos 1726 Rocket 4.4 20:06:22 10° SSW 20:10:40 54° WNW 20:14:58 10° N
ARIANE 5 R/B 3.7 20:09:19 15° ESE 20:12:12 30° ENE 20:16:03 10° N
Ariane Rocket 3.4 20:09:31 10° S 20:14:32 64° WSW 20:19:35 10° NNW
Cosmos 1408 4.0 20:12:06 10° NNW 20:15:25 37° W 20:18:44 10° SSW
Orbus 7S? 3.3 20:16:44 10° SW 20:19:37 57° SE 20:25:08 10° ENE
CZ-4C R/B 3.4 20:16:08 10° WSW 20:21:14 47° NNW 20:27:29 10° NE
RESURS DK-1 2.3 20:18:16 10° SSW 20:22:22 69° ESE 20:26:31 10° NE
Genesis I 4.1 20:19:03 10° NNW 20:22:50 40° NE 20:25:22 19° E
Landsat 7 3.8 20:20:38 14° SSE 20:24:40 72° ENE 20:29:26 10° N
USA 245 3.6 20:24:37 21° SE 20:26:49 42° ENE 20:29:57 10° N
Cosmos-2242 4.1 20:25:50 21° SE 20:27:32 27° E 20:31:10 10° NNE
Cosmos 2058 3.6 20:24:23 10° NNW 20:28:30 54° W 20:32:33 10° S
NOSS 7 (E) 4.2 20:24:52 10° SW 20:28:30 83° SE 20:31:36 10° NE
Meteor 2-1 Rocket 4.3 20:23:12 10° S 20:29:01 86° ESE 20:35:00 10° NNE
Cosmos 1655 Rocket 4.1 20:26:50 10° N 20:33:06 60° ENE 20:37:46 18° SSE
Cosmos 482 Debris 2.5 20:31:21 10° W 20:33:39 85° N 20:33:56 60° ENE
SL-16 R/B 3.1 20:29:00 10° NNW 20:34:17 37° NE 20:37:53 18° ESE
Cosmos 1980 3.7 20:30:01 10° NNW 20:35:46 85° ENE 20:39:44 21° SSE
Cosmos 2058 Rocket 4.1 20:32:38 10° SSW 20:36:51 48° WNW 20:41:06 10° N
COSMOS 2487 4.2 20:34:06 10° SW 20:37:15 35° WNW 20:40:26 10° N
Cosmos 614 Rocket 3.9 20:32:13 10° S 20:37:17 64° ESE 20:42:21 10° NNE
BREEZE-M DEB (TANK) 3.9 20:34:06 10° WSW 20:38:32 76° SSE 20:55:40 10° E
Cosmos 2151 3.0 20:38:36 10° N 20:42:55 66° ENE 20:45:16 26° SSE
COSMOS 2428 3.9 20:39:02 10° NW 20:44:20 39° WSW 20:49:36 10° S
Meteor 2-3 Rocket 3.9 20:39:08 10° N 20:44:53 62° ENE 20:48:26 23° SSE
IRIDIUM 104 4.3 20:40:13 10° S 20:45:26 84° E 20:50:42 10° N
Cosmos 1076 Rocket 3.8 20:42:22 10° NNW 20:46:43 67° W 20:50:07 16° S
Cosmos 2344 3.5 20:39:49 10° SW 20:47:14 81° SE 20:55:22 10° NE
ATLAS 3B R/B 3.4 20:40:45 10° NW 20:47:28 50° WSW 20:53:12 16° S
FALCON 9 DEB 3.2 20:45:21 10° SW 20:48:40 50° SSE 20:49:45 34° E
USA 215 3.4 20:45:38 22° SE 20:50:06 69° SW 20:56:39 10° WNW
Cosmos 1812 Rocket 3.5 20:47:57 14° S 20:51:42 78° E 20:56:11 10° NNE
Resurs 01 Rocket 2.5 20:50:18 12° S 20:54:18 47° W 20:58:38 10° NNW
IRIDIUM 114 4.4 20:49:22 10° S 20:54:35 82° W 20:59:51 10° N
Cosmos 1818 3.5 20:49:36 10° SW 20:55:03 85° SE 21:00:35 10° NE
Cosmos 1455 4.2 20:52:34 10° SW 20:55:51 28° WNW 20:59:10 10° N
ERS-1 Rocket 3.2 20:54:39 28° SE 20:57:05 54° ENE 21:01:59 10° N
Cosmos 2219 Rocket 3.9 20:52:29 10° NW 20:57:12 27° WSW 21:01:54 10° SSW
Cosmos 44 3.5 20:52:03 10° SW 20:57:15 84° NW 21:02:42 10° NE
Cosmos 407 Rocket 3.6 20:53:35 16° S 20:57:35 53° ESE 21:02:38 10° NNE
Okean 3 Rocket 4.2 20:53:29 10° N 20:57:50 43° ENE 20:59:21 32° ESE
Meteor 2-21 4.5 20:54:53 10° NNW 21:00:57 81° W 21:05:27 19° S
Cosmos 1766 Rocket 4.0 20:58:03 10° N 21:02:14 45° ENE 21:03:29 35° ESE
Cosmos 1633 2.7 20:59:05 10° NNW 21:02:42 70° W 21:04:10 33° S
CARTOSAT-1 3.5 21:04:22 35° SSE 21:06:09 77° ENE 21:10:29 10° NNW
ATLAS 5 CENTAUR R/B 4.1 21:04:47 10° WNW 21:08:20 22° NNW 21:12:20 10° NE
Cosmos 405 Rocket 4.5 21:05:48 10° NNW 21:09:22 31° W 21:12:30 12° SSW
Meteor 1-4 Rocket 3.9 21:10:11 24° ENE 21:10:11 24° ENE 21:12:24 10° NNE
Lacrosse 5 rocket 2.8 21:05:56 10° WNW 21:09:52 38° N 21:14:00 10° ENE
Cosmos 909 Rocket 4.1 21:07:15 10° SW 21:13:32 82° NW 21:20:11 10° NE
Cosmos 1023 Rocket 4.3 21:12:05 20° S 21:15:34 67° ESE 21:20:38 10° NNE
COSMOS 2455 3.6 21:18:15 30° ESE 21:18:23 30° ESE 21:23:30 10° NE
Cosmos 1869 3.6 21:18:39 44° E 21:18:48 45° E 21:22:36 10° NNE
SPOT 5 2.7 21:19:30 41° SSE 21:21:05 80° ENE 21:25:52 10° NNW
Cosmos 1140 Rocket 3.3 21:18:31 21° SSW 21:22:00 73° ESE 21:27:08 10° NNE
Spot 2 Rocket 3.8 21:21:43 28° S 21:24:24 65° WSW 21:29:28 10° NNW
Cosmos 2237 Rocket 2.8 21:19:05 10° NW 21:24:29 48° WSW 21:27:26 25° S
CZ-2C R/B 4.2 21:20:29 10° N 21:24:52 58° WNW 21:28:54 12° SSW
SeaSat 1 4.2 21:22:49 10° ENE 21:24:38 16° E 21:24:38 16° E
Terra 1.8 21:28:59 46° SE 21:30:21 72° ENE 21:35:07 10° N
Cosmos 2082 4.0 21:39:13 42° ESE 21:39:41 43° ESE 21:44:57 10° NE
Cosmos 2263 Rocket 4.0 21:42:46 15° E 21:42:46 15° E 21:44:33 10° ENE
USA 229 DEB 4.4 21:34:32 10° NW 21:41:32 54° NNE 21:46:08 24° E
USA 229 4.4 21:34:38 10° NW 21:41:37 54° NNE 21:46:15 24° E
Cosmos 2227 Rocket 2.1 21:38:45 24° SSW 21:42:18 77° ESE 21:47:58 10° NNE
Cosmos 468 Rocket 4.0 21:37:21 10° NNW 21:42:29 65° ENE 21:43:44 48° ESE
Meteor 2-8 Rocket 4.3 21:42:18 34° S 21:45:11 81° E 21:51:21 10° NNE
ARIANE 5 R/B 3.8 21:46:52 27° SW 21:48:35 37° W 21:52:41 10° NNW
Cosmos 1842 Rocket 4.1 21:49:34 42° E 21:49:34 42° E 21:53:30 10° NNE
Cosmos 2297 Rocket 2.2 21:44:05 10° SSW 21:49:45 79° WNW 21:55:27 10° NNE
Cosmos 841 Rocket 4.3 21:45:15 10° NNW 21:50:12 40° NE 21:51:30 34° E
Cosmos 1190 Rocket 4.0 21:47:49 22° SSW 21:51:14 78° WNW 21:56:30 10° NNE
Cosmos 2219 3.2 21:47:37 14° SSW 21:52:29 82° WNW 21:58:10 10° NNE
H-2A R/B 3.3 21:49:14 10° NNE 21:53:29 78° ESE 21:53:41 76° SE
NOSS 3-1 (A) 4.3 21:52:25 10° NW 21:59:25 60° NE 22:04:04 27° ESE
Genesis I 4.4 21:56:43 10° WNW 22:00:14 34° WSW 22:00:14 34° WSW
ATLAS 2AS CENTAUR R/B 4.1 21:53:14 10° W 22:00:43 44° NNW 22:07:56 10° NE
Cosmos 921 Rocket 4.0 21:57:22 10° N 22:01:28 34° ENE 22:01:48 34° ENE
Timation 2 Rocket 4.0 21:55:02 10° SSW 22:01:37 85° NW 22:07:57 10° NNE
Cosmos 1763 Rocket 3.3 21:57:02 10° NNW 22:02:10 87° ENE 22:02:58 64° SSE
Cosmos 1862 3.3 21:58:20 10° N 22:02:04 73° NE 22:02:04 73° NE
Nadezhda 2 Rocket 4.4 21:57:22 10° N 22:03:42 85° W 22:05:44 46° S
Cosmos-2242 4.4 22:02:37 21° SW 22:04:57 36° WNW 22:08:59 10° N
Cosmos 1408 Rocket 3.4 22:01:35 10° NNW 22:05:55 81° W 22:06:07 78° SW
Cosmos 676 Rocket 3.9 22:07:08 48° SSW 22:08:39 88° WNW 22:13:53 10° NNE
CRYOSAT 2 4.4 22:10:15 60° SSW 22:11:06 76° W 22:16:02 10° N
CZ-4C R/B 4.4 22:06:13 10° WNW 22:11:18 28° N 22:17:17 10° NE
Cosmos 1805 Rocket 4.4 22:07:18 10° N 22:11:11 38° ENE 22:11:11 38° ENE
Spot 4 4.4 22:11:46 43° E 22:12:13 45° ENE 22:16:52 10° N
SL-16 R/B 2.6 22:13:07 10° NW 22:18:36 50° WSW 22:19:46 43° SSW
Sich 1 4.0 22:17:19 10° N 22:20:54 36° ENE 22:20:54 36° ENE
Cosmos 1743 Rocket 3.5 22:17:08 10° N 22:21:17 77° NNE 22:21:17 77° NNE
Cosmos 540 Rocket 3.4 22:16:26 10° NNW 22:21:35 73° ENE 22:22:04 67° ESE
Meteor 2-15 Rocket 4.3 22:22:08 52° S 22:23:45 89° E 22:29:52 10° N
NOSS 3-1 (C) 3.9 22:18:26 10° NW 22:25:44 86° SW 22:28:42 45° SE
SL-08 ROCKET BODY 4.3 22:20:26 10° N 22:26:34 85° W 22:27:52 58° S
Cosmos 1570 Rocket 4.2 22:23:28 10° NNW 22:28:43 58° ENE 22:29:21 54° E
Cosmos 2221 2.6 22:30:07 73° NNW 22:30:07 73° NNW 22:34:08 10° N
SL-08 R/B 4.4 22:24:06 10° NNW 22:30:17 81° W 22:31:43 56° S
Cosmos 1386 Rocket 4.3 22:27:31 10° N 22:33:37 77° E 22:34:38 62° SE
Cosmos 1633 Rocket 4.5 22:31:13 10° N 22:34:39 27° ENE 22:34:39 27° ENE
Cosmos 44 Rocket 3.4 22:36:36 69° E 22:36:36 69° E 22:41:25 10° NE
Aureole 1 Rocket 3.7 22:38:07 58° E 22:38:07 58° E 22:42:32 10° NNE
Cosmos 1553 Rocket 3.8 22:39:11 59° SSW 22:40:27 88° W 22:46:36 10° N
Cosmos 1500 Rocket 3.8 22:36:36 10° NNW 22:40:50 64° WNW 22:40:50 64° WNW
Meteor 1-4 Rocket 4.5 22:44:18 24° WNW 22:44:21 24° WNW 22:47:17 10° N
Cosmos 1943 3.0 22:42:46 10° NNW 22:48:26 81° ENE 22:48:59 72° ESE
Cosmos 1741 Rocket 3.9 22:48:41 80° ESE 22:48:41 80° ESE 22:54:00 10° NNE
ALOS 2 3.2 22:49:56 51° NE 22:49:56 51° NE 22:53:48 10° N
Lacrosse 5 rocket 2.0 22:45:23 10° WNW 22:49:38 54° NNE 22:49:47 54° NNE
Cosmos 1417 Rocket 4.4 22:49:46 59° SSW 22:51:05 86° W 22:57:24 10° N
Cosmos 1850 Rocket 3.8 22:54:08 87° SSW 22:54:13 90° NW 22:59:30 10° NNE
ATLAS 5 CENTAUR R/B 4.2 22:50:39 10° NW 22:54:33 23° NNE 22:59:00 10° ENE
Cosmos 2208 Rocket 3.9 22:58:15 10° NNW 23:03:37 86° ENE 23:03:42 85° E
COSMOS 2455 3.1 23:01:18 34° WSW 23:03:55 66° NW 23:09:58 10° NE
SeaSat 1 2.4 22:59:22 10° NNE 23:04:20 82° WNW 23:04:24 82° WNW
Cosmos 1606 4.0 23:09:02 38° NNW 23:09:02 38° NNW 23:11:36 10° N
Terra 3.8 23:07:51 17° W 23:08:37 17° W 23:11:48 10° NW
Cosmos 2315 Rocket 4.0 23:10:31 60° ESE 23:11:07 63° E 23:17:24 10° NNE
Iridium 4 Rocket 3.9 23:11:57 50° ENE 23:11:57 50° ENE 23:16:40 10° NNE
Cosmos 1151 Rocket 4.2 23:21:43 37° NE 23:21:43 37° NE 23:24:41 10° NNE
Cosmos 2263 Rocket 2.0 23:24:25 85° E 23:24:25 85° E 23:29:59 10° NNE
Cosmos 2227 Rocket 4.1 23:22:11 10° W 23:26:57 27° NW 23:31:46 10° NNE
Cosmos 841 Rocket 4.5 23:27:17 10° NW 23:31:35 36° W 23:31:35 36° W
USA 229 DEB 4.0 23:25:36 10° NW 23:32:43 57° SW 23:33:33 54° SSW
Cosmos 1603 4.1 23:27:15 10° NW 23:32:30 49° WSW 23:32:30 49° WSW
USA 229 4.0 23:25:42 10° NW 23:32:49 58° SW 23:33:40 55° SSW
Meteor 2-17 Rocket 4.4 23:27:03 10° NNW 23:33:09 68° W 23:33:42 64° SW
Cosmos 2297 Rocket 4.4 23:30:24 10° W 23:34:43 22° NW 23:39:05 10° NNE
USA 281 3.4 23:33:03 47° ESE 23:34:54 65° NE 23:41:25 10° NNW
Cosmos 1844 Rocket 4.0 23:39:31 27° E 23:39:31 27° E 23:43:21 10° NE
Cosmos 2074 Rocket 4.1 23:36:16 10° N 23:42:30 63° ENE 23:43:22 57° ESE
Cosmos 1437 Rocket 4.3 23:43:52 33° NNW 23:43:52 33° NNW 23:46:17 10° N
Cosmos 1709 Rocket 4.2 23:40:05 10° NNW 23:46:09 55° W 23:46:44 53° WSW
Meteor 1-5 Rocket 4.3 23:41:12 10° N 23:46:58 64° ENE 23:47:20 62° E
NOSS 3-1 (A) 4.2 23:43:21 10° NW 23:50:33 52° WSW 23:51:29 50° SW
